,,PA_Meas_PMT16A,,PR_Meas_QMR101_102,,RH_Meas_QMH101,,SR_Meas_QMS101,,TA_Meas_QMH101,,GenWind,,GenWind,
time,status,PA,status,PR,status,RH,status,SR,status,TA,status,DirAvg,status,SpdAvg,
2012-09-06, 00:00:04,VALID,918.969,VALID,0,VALID,94.8277,VALID,0,VALID,19.4718,VALID,348,VALID,0,
2012-09-06, 00:01:04,VALID,918.985,VALID,0,VALID,94.9725,VALID,0,VALID,19.4523,VALID,348,VALID,0,
2012-09-06, 00:02:04,VALID,918.996,VALID,0,VALID,94.8734,VALID,0,VALID,19.3937,VALID,348,VALID,0,
2012-09-06, 00:03:04,VALID,918.961,VALID,0,VALID,95.2393,VALID,0,VALID,19.3742,VALID,348,VALID,0,
2012-09-06, 00:04:04,VALID,918.977,VALID,0,VALID,95.4452,VALID,0,VALID,19.3937,VALID,348,VALID,0,
2012-09-06, 00:05:04,VALID,918.974,VALID,0,VALID,95.5595,VALID,0,VALID,19.3742,VALID,348,VALID,0,
2012-09-06, 00:06:04,VALID,918.968,VALID,0,VALID,95.7272,VALID,0,VALID,19.3352,VALID,348,VALID,0,
2012-09-06, 00:07:04,VALID,918.977,VALID,0,VALID,95.9483,VALID,0,VALID,19.3937,VALID,348,VALID,0,
2012-09-06, 00:08:04,VALID,918.99,VALID,0,VALID,96.0779,VALID,0,VALID,19.3937,VALID,348,VALID,0,
2012-09-06, 00:09:04,VALID,919.022,VALID,0,VALID,96.1236,VALID,0,VALID,19.4132,VALID,348,VALID,0,
2012-09-06, 00:10:04,VALID,919,VALID,0,VALID,96.2151,VALID,0,VALID,19.4132,VALID,348,VALID,0,
2012-09-06, 00:11:04,VALID,919.014,VALID,0,VALID,96.3142,VALID,0,VALID,19.4132,VALID,348,VALID,0,
2012-09-06, 00:12:04,VALID,919.048,VALID,0,VALID,96.3447,VALID,0,VALID,19.4327,VALID,348,VALID,0,
2012-09-06, 00:13:04,VALID,919.063,VALID,0,VALID,96.2151,VALID,0,VALID,19.4132,VALID,348,VALID,0,
2012-09-06, 00:14:04,VALID,919.038,VALID,0,VALID,96.1541,VALID,0,VALID,19.4147,VALID,348,VALID,0,
2012-09-06, 00:15:04,VALID,919.044,VALID,0,VALID,96.0093,VALID,0,VALID,19.3562,VALID,348,VALID,0,
2012-09-06, 00:16:04,VALID,919.013,VALID,0,VALID,96.0398,VALID,0,VALID,19.3157,VALID,348,VALID,0,
2012-09-06, 00:17:04,VALID,919.022,VALID,0,VALID,96.238,VALID,0,VALID,19.3352,VALID,12,VALID,0,
2012-09-06, 00:18:04,VALID,919.016,VALID,0,VALID,96.2304,VALID,0,VALID,19.3157,VALID,12,VALID,0,
2012-09-06, 00:19:04,VALID,919.003,VALID,0,VALID,96.1923,VALID,0,VALID,19.2572,VALID,12,VALID,0,
2012-09-06, 00:20:04,VALID,919.005,VALID,0,VALID,96.1999,VALID,0,VALID,19.2182,VALID,12,VALID,0,
2012-09-06, 00:21:04,VALID,918.993,VALID,0,VALID,96.2304,VALID,0,VALID,19.1987,VALID,12,VALID,0,
2012-09-06, 00:22:04,VALID,918.934,VALID,0,VALID,96.1923,VALID,0,VALID,19.1597,VALID,12,VALID,0,
2012-09-06, 00:23:04,VALID,918.945,VALID,0,VALID,96.3676,VALID,0,VALID,19.1402,VALID,12,VALID,0,
2012-09-06, 00:24:04,VALID,918.94,VALID,0,VALID,96.3676,VALID,0,VALID,19.1222,VALID,12,VALID,0,
2012-09-06, 00:25:04,VALID,918.921,VALID,0,VALID,96.2761,VALID,0,VALID,19.0622,VALID,12,VALID,0,
2012-09-06, 00:26:04,VALID,918.947,VALID,0,VALID,96.3447,VALID,0,VALID,19.0442,VALID,12,VALID,0,
2012-09-06, 00:27:04,VALID,918.922,VALID,0,VALID,96.4133,VALID,0,VALID,19.0247,VALID,12,VALID,0,
2012-09-06, 00:28:04,VALID,918.892,VALID,0,VALID,96.5048,VALID,0,VALID,19.0037,VALID,12,VALID,0,
2012-09-06, 00:29:04,VALID,918.878,VALID,0,VALID,96.5429,VALID,0,VALID,18.9842,VALID,12,VALID,0,
2012-09-06, 00:30:04,VALID,918.909,VALID,0,VALID,96.6497,VALID,0,VALID,19.0247,VALID,12,VALID,0,
2012-09-06, 00:31:04,VALID,918.878,VALID,0,VALID,96.6573,VALID,0,VALID,19.0442,VALID,12,VALID,0,
2012-09-06, 00:32:04,VALID,918.863,VALID,0,VALID,96.6039,VALID,0,VALID,19.0037,VALID,12,VALID,0,
2012-09-06, 00:33:04,VALID,918.897,VALID,0,VALID,96.5811,VALID,0,VALID,18.9842,VALID,12,VALID,0,
2012-09-06, 00:34:04,VALID,918.885,VALID,0,VALID,96.5963,VALID,0,VALID,19.0052,VALID,12,VALID,0,
2012-09-06, 00:35:04,VALID,918.868,VALID,0,VALID,96.6192,VALID,0,VALID,19.0052,VALID,12,VALID,0,
2012-09-06, 00:36:04,VALID,918.897,VALID,0,VALID,96.5963,VALID,0,VALID,18.9857,VALID,12,VALID,0,
2012-09-06, 00:37:04,VALID,918.872,VALID,0,VALID,96.6268,VALID,0,VALID,19.0052,VALID,12,VALID,0,
2012-09-06, 00:38:04,VALID,918.897,VALID,0,VALID,96.6802,VALID,0,VALID,19.0052,VALID,12,VALID,0,
2012-09-06, 00:39:04,VALID,918.9,VALID,0,VALID,96.6802,VALID,0,VALID,18.9842,VALID,12,VALID,0,
2012-09-06, 00:40:04,VALID,918.885,VALID,0,VALID,96.6649,VALID,0,VALID,19.0052,VALID,12,VALID,0,
2012-09-06, 00:41:04,VALID,918.888,VALID,0,VALID,96.6497,VALID,0,VALID,19.0052,VALID,12,VALID,0,
2012-09-06, 00:42:04,VALID,918.89,VALID,0,VALID,96.6344,VALID,0,VALID,18.9647,VALID,12,VALID,0,
2012-09-06, 00:43:04,VALID,918.911,VALID,0,VALID,96.642,VALID,0,VALID,18.9842,VALID,12,VALID,0,
2012-09-06, 00:44:04,VALID,918.906,VALID,0,VALID,96.703,VALID,0,VALID,19.0052,VALID,12,VALID,0,
2012-09-06, 00:45:04,VALID,918.925,VALID,0,VALID,96.6192,VALID,0,VALID,18.9842,VALID,12,VALID,0,
2012-09-06, 00:46:04,VALID,918.928,VALID,0,VALID,96.5201,VALID,0,VALID,18.9857,VALID,12,VALID,0,
2012-09-06, 00:47:04,VALID,918.933,VALID,0,VALID,96.5353,VALID,0,VALID,18.9857,VALID,12,VALID,0,
2012-09-06, 00:48:04,VALID,918.901,VALID,0,VALID,96.5353,VALID,0,VALID,18.9467,VALID,12,VALID,0,
2012-09-06, 00:49:04,VALID,918.907,VALID,0,VALID,96.5429,VALID,0,VALID,18.9452,VALID,12,VALID,0,
2012-09-06, 00:50:04,VALID,918.887,VALID,0,VALID,96.642,VALID,0,VALID,18.9438,VALID,342,VALID,0,
2012-09-06, 00:51:04,VALID,918.859,VALID,0,VALID,96.6344,VALID,0,VALID,18.9842,VALID,342,VALID,0,
2012-09-06, 00:52:04,VALID,918.832,VALID,0,VALID,96.6954,VALID,0,VALID,19.0037,VALID,342,VALID,0,
2012-09-06, 00:53:04,VALID,918.779,VALID,0,VALID,96.6954,VALID,0,VALID,19.0427,VALID,342,VALID,0,
2012-09-06, 00:54:04,VALID,918.774,VALID,0,VALID,96.5963,VALID,0,VALID,19.0427,VALID,342,VALID,0,
2012-09-06, 00:55:04,VALID,918.745,VALID,0,VALID,96.6115,VALID,0,VALID,19.0413,VALID,342,VALID,0,
2012-09-06, 00:56:04,VALID,918.717,VALID,0,VALID,96.5963,VALID,0,VALID,19.1012,VALID,342,VALID,0,
2012-09-06, 00:57:04,VALID,918.702,VALID,0,VALID,96.6497,VALID,0.107441,VALID,19.1207,VALID,342,VALID,0,
2012-09-06, 00:58:04,VALID,918.682,VALID,0,VALID,96.7411,VALID,0,VALID,19.1597,VALID,342,VALID,0,
2012-09-06, 00:59:04,VALID,918.66,VALID,0,VALID,96.7183,VALID,0.107441,VALID,19.1792,VALID,342,VALID,0,
2012-09-06, 01:00:04,VALID,918.649,VALID,0,VALID,96.7335,VALID,0,VALID,19.1792,VALID,342,VALID,0,
2012-09-06, 01:01:04,VALID,918.64,VALID,0,VALID,96.7716,VALID,0,VALID,19.1792,VALID,342,VALID,0,
2012-09-06, 01:02:04,VALID,918.616,VALID,0,VALID,96.8021,VALID,0,VALID,19.1778,VALID,342,VALID,0,
2012-09-06, 01:03:04,VALID,918.638,VALID,0,VALID,96.8021,VALID,0,VALID,19.1987,VALID,342,VALID,0,
2012-09-06, 01:04:04,VALID,918.62,VALID,0,VALID,96.7488,VALID,0,VALID,19.1597,VALID,342,VALID,0,
2012-09-06, 01:05:04,VALID,918.607,VALID,0,VALID,96.7869,VALID,0,VALID,19.1597,VALID,342,VALID,0,
2012-09-06, 01:06:04,VALID,918.609,VALID,0,VALID,96.8174,VALID,0,VALID,19.1402,VALID,342,VALID,0,
2012-09-06, 01:07:04,VALID,918.618,VALID,0,VALID,96.8403,VALID,0.107441,VALID,19.1597,VALID,342,VALID,0,
2012-09-06, 01:08:04,VALID,918.621,VALID,0,VALID,96.8631,VALID,0.107441,VALID,19.1597,VALID,342,VALID,0,
2012-09-06, 01:09:04,VALID,918.591,VALID,0,VALID,96.886,VALID,0,VALID,19.1792,VALID,342,VALID,0,
2012-09-06, 01:10:04,VALID,918.583,VALID,0,VALID,96.886,VALID,0.107441,VALID,19.1778,VALID,342,VALID,0,
2012-09-06, 01:11:04,VALID,918.578,VALID,0,VALID,96.9012,VALID,0,VALID,19.1792,VALID,342,VALID,0,
2012-09-06, 01:12:04,VALID,918.585,VALID,0,VALID,96.9241,VALID,0,VALID,19.1792,VALID,342,VALID,0,
2012-09-06, 01:13:04,VALID,918.536,VALID,0,VALID,96.9012,VALID,0,VALID,19.1792,VALID,342,VALID,0,
2012-09-06, 01:14:04,VALID,918.539,VALID,0,VALID,96.9089,VALID,0,VALID,19.1597,VALID,342,VALID,0,
2012-09-06, 01:15:04,VALID,918.504,VALID,0,VALID,96.9089,VALID,0.107441,VALID,19.1193,VALID,342,VALID,0,
2012-09-06, 01:16:04,VALID,918.483,VALID,0,VALID,96.886,VALID,0,VALID,19.1402,VALID,255,VALID,0,
2012-09-06, 01:17:04,VALID,918.491,VALID,0,VALID,96.9241,VALID,0,VALID,19.1792,VALID,251,VALID,0,
2012-09-06, 01:18:04,VALID,918.474,VALID,0,VALID,96.9394,VALID,0.107441,VALID,19.1987,VALID,251,VALID,0,
2012-09-06, 01:19:04,VALID,918.484,VALID,0,VALID,96.9394,VALID,0,VALID,19.1778,VALID,251,VALID,0,
2012-09-06, 01:20:04,VALID,918.48,VALID,0,VALID,96.8936,VALID,0.107441,VALID,19.1388,VALID,251,VALID,0,
2012-09-06, 01:21:04,VALID,918.483,VALID,0,VALID,96.8555,VALID,0,VALID,19.1207,VALID,251,VALID,0,
2012-09-06, 01:22:04,VALID,918.433,VALID,0,VALID,96.5658,VALID,0,VALID,19.0427,VALID,251,VALID,0,
2012-09-06, 01:23:04,VALID,918.426,VALID,0,VALID,96.9089,VALID,0.107441,VALID,19.0998,VALID,251,VALID,0,
2012-09-06, 01:24:04,VALID,918.395,VALID,0,VALID,96.9241,VALID,0,VALID,19.1388,VALID,251,VALID,0,
2012-09-06, 01:25:04,VALID,918.379,VALID,0,VALID,96.947,VALID,0,VALID,19.2182,VALID,251,VALID,0,
2012-09-06, 01:26:04,VALID,918.355,VALID,0,VALID,96.9698,VALID,0,VALID,19.2377,VALID,251,VALID,0,
2012-09-06, 01:27:04,VALID,918.363,VALID,0,VALID,96.9622,VALID,0,VALID,19.1987,VALID,256,VALID,0,
2012-09-06, 01:28:04,VALID,918.312,VALID,0,VALID,96.8631,VALID,0,VALID,19.1402,VALID,359,VALID,0,
2012-09-06, 01:29:04,VALID,918.313,VALID,0,VALID,96.3524,VALID,0,VALID,18.9452,VALID,359,VALID,0,
2012-09-06, 01:30:04,VALID,918.283,VALID,0,VALID,96.5734,VALID,0.107441,VALID,18.9062,VALID,359,VALID,0,
2012-09-06, 01:31:04,VALID,918.279,VALID,0,VALID,96.5429,VALID,0.107441,VALID,18.8282,VALID,359,VALID,0,
2012-09-06, 01:32:04,VALID,918.218,VALID,0,VALID,96.5963,VALID,0.107441,VALID,18.7697,VALID,359,VALID,0,
2012-09-06, 01:33:04,VALID,918.168,VALID,0,VALID,96.6802,VALID,0,VALID,18.7308,VALID,359,VALID,0,
2012-09-06, 01:34:04,VALID,918.162,VALID,0,VALID,96.7488,VALID,0,VALID,18.7308,VALID,359,VALID,0,
2012-09-06, 01:35:04,VALID,918.167,VALID,0,VALID,96.9012,VALID,0.107441,VALID,18.7293,VALID,359,VALID,0,
2012-09-06, 01:36:04,VALID,918.208,VALID,0,VALID,96.9394,VALID,0.107441,VALID,18.7878,VALID,359,VALID,0,
2012-09-06, 01:37:04,VALID,918.232,VALID,0,VALID,96.9546,VALID,0.107441,VALID,18.8282,VALID,359,VALID,0,
2012-09-06, 01:38:04,VALID,918.269,VALID,0,VALID,96.9622,VALID,0,VALID,18.8282,VALID,359,VALID,0,
2012-09-06, 01:39:04,VALID,918.257,VALID,0,VALID,96.9622,VALID,0.107441,VALID,18.8268,VALID,359,VALID,0,
2012-09-06, 01:40:04,VALID,918.252,VALID,0,VALID,96.947,VALID,0,VALID,18.8073,VALID,359,VALID,0,
2012-09-06, 01:41:04,VALID,918.261,VALID,0,VALID,96.9089,VALID,0.107441,VALID,18.7683,VALID,359,VALID,0,
2012-09-06, 01:42:04,VALID,918.235,VALID,0,VALID,96.8631,VALID,0,VALID,18.7293,VALID,359,VALID,0,
2012-09-06, 01:43:04,VALID,918.217,VALID,0,VALID,96.8479,VALID,0.107441,VALID,18.6918,VALID,359,VALID,0,
2012-09-06, 01:44:04,VALID,918.2,VALID,0,VALID,96.8631,VALID,0.107441,VALID,18.6723,VALID,359,VALID,0,
2012-09-06, 01:45:04,VALID,918.202,VALID,0,VALID,96.9012,VALID,0,VALID,18.6528,VALID,359,VALID,0,
2012-09-06, 01:46:04,VALID,918.167,VALID,0,VALID,96.9317,VALID,0.107441,VALID,18.6319,VALID,359,VALID,0,
2012-09-06, 01:47:04,VALID,918.189,VALID,0,VALID,96.9698,VALID,0.107441,VALID,18.6528,VALID,359,VALID,0,
2012-09-06, 01:48:04,VALID,918.211,VALID,0,VALID,97.0156,VALID,0.107441,VALID,18.7503,VALID,359,VALID,0,
2012-09-06, 01:49:04,VALID,918.18,VALID,0,VALID,97.0766,VALID,0.107441,VALID,18.8073,VALID,283,VALID,0,
2012-09-06, 01:50:04,VALID,918.192,VALID,0,VALID,97.0994,VALID,0.107441,VALID,18.8867,VALID,275,VALID,0,
2012-09-06, 01:51:04,VALID,918.229,VALID,0,VALID,97.1223,VALID,0.107441,VALID,18.9062,VALID,275,VALID,0,
2012-09-06, 01:52:04,VALID,918.226,VALID,0,VALID,97.1376,VALID,0,VALID,18.9257,VALID,275,VALID,0,
2012-09-06, 01:53:04,VALID,918.179,VALID,0,VALID,97.1223,VALID,0,VALID,18.9257,VALID,275,VALID,0,
2012-09-06, 01:54:04,VALID,918.16,VALID,0,VALID,97.0918,VALID,0.107441,VALID,18.9062,VALID,275,VALID,0,
2012-09-06, 01:55:04,VALID,918.128,VALID,0,VALID,97.069,VALID,0,VALID,18.8073,VALID,275,VALID,0,
2012-09-06, 01:56:04,VALID,918.115,VALID,0,VALID,97.008,VALID,0.107441,VALID,18.7098,VALID,275,VALID,0,
2012-09-06, 01:57:04,VALID,918.089,VALID,0,VALID,97.0156,VALID,0.107441,VALID,18.7113,VALID,275,VALID,0,
2012-09-06, 01:58:04,VALID,918.022,VALID,0,VALID,97.0308,VALID,0,VALID,18.7308,VALID,275,VALID,0,
2012-09-06, 01:59:04,VALID,918.014,VALID,0,VALID,97.0385,VALID,0.107441,VALID,18.7098,VALID,275,VALID,0,
2012-09-06, 02:00:04,VALID,917.961,VALID,0,VALID,97.0766,VALID,0.107441,VALID,18.7503,VALID,275,VALID,0,
2012-09-06, 02:01:04,VALID,917.987,VALID,0,VALID,97.0918,VALID,0.107441,VALID,18.7697,VALID,275,VALID,0,
2012-09-06, 02:02:04,VALID,917.938,VALID,0,VALID,97.0994,VALID,0.107441,VALID,18.7488,VALID,275,VALID,0,
2012-09-06, 02:03:04,VALID,917.917,VALID,0,VALID,97.1452,VALID,0.107441,VALID,18.8087,VALID,275,VALID,0,
2012-09-06, 02:04:04,VALID,917.906,VALID,0,VALID,97.1452,VALID,0,VALID,18.8282,VALID,275,VALID,0,
2012-09-06, 02:05:04,VALID,917.894,VALID,0,VALID,97.1528,VALID,0,VALID,18.8463,VALID,275,VALID,0,
2012-09-06, 02:06:04,VALID,917.897,VALID,0,VALID,97.1604,VALID,0,VALID,18.8687,VALID,275,VALID,0,
2012-09-06, 02:07:04,VALID,917.881,VALID,0,VALID,97.1833,VALID,0.107441,VALID,18.8672,VALID,275,VALID,0,
2012-09-06, 02:08:04,VALID,917.894,VALID,0,VALID,97.1757,VALID,0,VALID,18.8477,VALID,275,VALID,0,
2012-09-06, 02:09:04,VALID,917.877,VALID,0,VALID,97.1681,VALID,0,VALID,18.8477,VALID,275,VALID,0,
2012-09-06, 02:10:04,VALID,917.844,VALID,0,VALID,97.1604,VALID,0.107441,VALID,18.8477,VALID,275,VALID,0,
2012-09-06, 02:11:04,VALID,917.848,VALID,0,VALID,97.1604,VALID,0,VALID,18.7892,VALID,275,VALID,0,
2012-09-06, 02:12:04,VALID,917.835,VALID,0,VALID,97.1376,VALID,0.107441,VALID,18.7503,VALID,275,VALID,0,
2012-09-06, 02:13:04,VALID,917.802,VALID,0,VALID,97.1147,VALID,0.107441,VALID,18.7308,VALID,275,VALID,0,
2012-09-06, 02:14:04,VALID,917.802,VALID,0,VALID,97.1071,VALID,0,VALID,18.6903,VALID,275,VALID,0,
2012-09-06, 02:15:04,VALID,917.808,VALID,0,VALID,97.1223,VALID,0,VALID,18.7098,VALID,275,VALID,0,
2012-09-06, 02:16:04,VALID,917.817,VALID,0,VALID,97.1452,VALID,0.107441,VALID,18.7697,VALID,275,VALID,0,
2012-09-06, 02:17:04,VALID,917.798,VALID,0,VALID,97.1681,VALID,0,VALID,18.8087,VALID,275,VALID,0,
2012-09-06, 02:18:04,VALID,917.807,VALID,0,VALID,97.2214,VALID,0.107441,VALID,18.9062,VALID,275,VALID,0,
2012-09-06, 02:19:04,VALID,917.798,VALID,0,VALID,97.2214,VALID,0,VALID,18.9662,VALID,275,VALID,0,
2012-09-06, 02:20:04,VALID,917.777,VALID,0,VALID,97.2519,VALID,0,VALID,19.0442,VALID,275,VALID,0,
2012-09-06, 02:21:04,VALID,917.753,VALID,0,VALID,97.2595,VALID,0,VALID,19.0832,VALID,275,VALID,0,
2012-09-06, 02:22:04,VALID,917.727,VALID,0,VALID,97.2595,VALID,0,VALID,19.0442,VALID,275,VALID,0,
2012-09-06, 02:23:04,VALID,917.705,VALID,0,VALID,97.2519,VALID,0,VALID,19.0247,VALID,275,VALID,0,
2012-09-06, 02:24:04,VALID,917.683,VALID,0,VALID,97.2672,VALID,0,VALID,19.0247,VALID,275,VALID,0,
2012-09-06, 02:25:04,VALID,917.665,VALID,0,VALID,97.2519,VALID,0,VALID,19.0442,VALID,275,VALID,0,
2012-09-06, 02:26:04,VALID,917.664,VALID,0,VALID,97.2595,VALID,0,VALID,19.0832,VALID,221,VALID,0,
2012-09-06, 02:27:04,VALID,917.631,VALID,0,VALID,97.2672,VALID,0,VALID,19.0832,VALID,205,VALID,0,
2012-09-06, 02:28:04,VALID,917.627,VALID,0,VALID,97.2672,VALID,0,VALID,19.1222,VALID,200,VALID,0,
2012-09-06, 02:29:04,VALID,917.596,VALID,0,VALID,97.2519,VALID,0,VALID,19.1417,VALID,200,VALID,0,
2012-09-06, 02:30:04,VALID,917.583,VALID,0,VALID,97.2672,VALID,0,VALID,19.1597,VALID,200,VALID,0,
2012-09-06, 02:31:04,VALID,917.539,VALID,0,VALID,97.2824,VALID,0,VALID,19.2002,VALID,200,VALID,0,
2012-09-06, 02:32:04,VALID,917.538,VALID,0,VALID,97.2595,VALID,0,VALID,19.2002,VALID,200,VALID,0,
2012-09-06, 02:33:04,VALID,917.532,VALID,0,VALID,97.29,VALID,0,VALID,19.2392,VALID,200,VALID,0,
2012-09-06, 02:34:04,VALID,917.524,VALID,0,VALID,97.29,VALID,0,VALID,19.2182,VALID,200,VALID,0,
2012-09-06, 02:35:04,VALID,917.535,VALID,0,VALID,97.2748,VALID,0,VALID,19.2377,VALID,200,VALID,0,
2012-09-06, 02:36:04,VALID,917.545,VALID,0,VALID,97.2748,VALID,0.107441,VALID,19.2767,VALID,200,VALID,0,
2012-09-06, 02:37:04,VALID,917.571,VALID,0,VALID,97.2748,VALID,0,VALID,19.2962,VALID,197,VALID,0,
2012-09-06, 02:38:04,VALID,917.597,VALID,0,VALID,97.2824,VALID,0.107441,VALID,19.3157,VALID,189,VALID,0,
2012-09-06, 02:39:04,VALID,917.597,VALID,0,VALID,97.2748,VALID,0,VALID,19.2948,VALID,189,VALID,0,
2012-09-06, 02:40:04,VALID,917.634,VALID,0,VALID,97.2824,VALID,0,VALID,19.3352,VALID,189,VALID,0,
2012-09-06, 02:41:04,VALID,917.584,VALID,0,VALID,97.2672,VALID,0,VALID,19.3352,VALID,189,VALID,0,
2012-09-06, 02:42:04,VALID,917.604,VALID,0,VALID,97.29,VALID,0.107441,VALID,19.2948,VALID,189,VALID,0,
2012-09-06, 02:43:04,VALID,917.615,VALID,0,VALID,97.2672,VALID,0,VALID,19.3157,VALID,157,VALID,0,
2012-09-06, 02:44:04,VALID,917.623,VALID,0,VALID,97.2824,VALID,0.107441,VALID,19.2753,VALID,145,VALID,0,
2012-09-06, 02:45:04,VALID,917.629,VALID,0,VALID,97.2595,VALID,0.107441,VALID,19.2377,VALID,160,VALID,0,
2012-09-06, 02:46:04,VALID,917.59,VALID,0,VALID,97.2367,VALID,0.107441,VALID,19.1792,VALID,149,VALID,0,
2012-09-06, 02:47:04,VALID,917.551,VALID,0,VALID,97.229,VALID,0.107441,VALID,19.0998,VALID,129,VALID,0,
2012-09-06, 02:48:04,VALID,917.563,VALID,0,VALID,97.2367,VALID,0.107441,VALID,19.0608,VALID,142,VALID,0,
2012-09-06, 02:49:04,VALID,917.568,VALID,0,VALID,97.2138,VALID,0,VALID,19.0232,VALID,138,VALID,0,
2012-09-06, 02:50:04,VALID,917.567,VALID,0,VALID,97.1986,VALID,0,VALID,19.0247,VALID,135,VALID,0,
2012-09-06, 02:51:04,VALID,917.542,VALID,0,VALID,97.1986,VALID,0,VALID,18.9842,VALID,132,VALID,0,
2012-09-06, 02:52:04,VALID,917.548,VALID,0,VALID,97.2062,VALID,0,VALID,18.9662,VALID,122,VALID,0,
2012-09-06, 02:53:04,VALID,917.544,VALID,0,VALID,97.1986,VALID,0,VALID,18.9452,VALID,118,VALID,0,
2012-09-06, 02:54:04,VALID,917.502,VALID,0,VALID,97.229,VALID,0,VALID,18.9452,VALID,85,VALID,0,
2012-09-06, 02:55:04,VALID,917.548,VALID,0,VALID,97.2367,VALID,0,VALID,18.9662,VALID,96,VALID,0,
2012-09-06, 02:56:04,VALID,917.547,VALID,0,VALID,97.2519,VALID,0,VALID,18.9272,VALID,84,VALID,0,
2012-09-06, 02:57:04,VALID,917.512,VALID,0,VALID,97.2367,VALID,0,VALID,18.9077,VALID,84,VALID,0,
2012-09-06, 02:58:04,VALID,917.481,VALID,0,VALID,97.2672,VALID,0,VALID,18.8882,VALID,84,VALID,0,
2012-09-06, 02:59:04,VALID,917.484,VALID,0,VALID,97.2595,VALID,0,VALID,18.8882,VALID,84,VALID,0,
2012-09-06, 03:00:04,VALID,917.462,VALID,0,VALID,97.29,VALID,0,VALID,18.8687,VALID,84,VALID,0,
2012-09-06, 03:01:04,VALID,917.519,VALID,0,VALID,97.2824,VALID,0,VALID,18.8882,VALID,84,VALID,0,
2012-09-06, 03:02:04,VALID,917.475,VALID,0,VALID,97.3053,VALID,0,VALID,18.9077,VALID,84,VALID,0,
2012-09-06, 03:03:04,VALID,917.474,VALID,0,VALID,97.3129,VALID,0,VALID,18.9467,VALID,118,VALID,0,
2012-09-06, 03:04:04,VALID,917.482,VALID,0,VALID,97.3358,VALID,0,VALID,18.9662,VALID,121,VALID,0,
2012-09-06, 03:05:04,VALID,917.462,VALID,0,VALID,97.3434,VALID,0,VALID,18.9452,VALID,94,VALID,0,
2012-09-06, 03:06:04,VALID,917.435,VALID,0,VALID,97.3434,VALID,0,VALID,18.9647,VALID,100,VALID,0,
2012-09-06, 03:07:04,VALID,917.445,VALID,0,VALID,97.3586,VALID,0,VALID,18.9842,VALID,90,VALID,0,
2012-09-06, 03:08:04,VALID,917.42,VALID,0,VALID,97.3663,VALID,0,VALID,19.0037,VALID,90,VALID,0,
2012-09-06, 03:09:04,VALID,917.362,VALID,0,VALID,97.3815,VALID,0,VALID,19.0247,VALID,90,VALID,0,
2012-09-06, 03:10:04,VALID,917.4,VALID,0,VALID,97.3663,VALID,0,VALID,19.0247,VALID,94,VALID,0,
2012-09-06, 03:11:04,VALID,917.407,VALID,0,VALID,97.3739,VALID,0,VALID,19.0232,VALID,122,VALID,0,
2012-09-06, 03:12:04,VALID,917.405,VALID,0,VALID,97.4044,VALID,0,VALID,19.0637,VALID,122,VALID,0,
2012-09-06, 03:13:04,VALID,917.397,VALID,0,VALID,97.3891,VALID,0,VALID,19.0622,VALID,122,VALID,0,
2012-09-06, 03:14:04,VALID,917.368,VALID,0,VALID,97.3891,VALID,0,VALID,19.1222,VALID,122,VALID,0,
2012-09-06, 03:15:04,VALID,917.349,VALID,0,VALID,97.4044,VALID,0,VALID,19.1012,VALID,122,VALID,0,
2012-09-06, 03:16:04,VALID,917.306,VALID,0,VALID,97.3968,VALID,0,VALID,19.1012,VALID,122,VALID,0,
2012-09-06, 03:17:04,VALID,917.301,VALID,0,VALID,97.4044,VALID,0,VALID,19.0832,VALID,114,VALID,0,
2012-09-06, 03:18:04,VALID,917.279,VALID,0,VALID,97.3815,VALID,0,VALID,19.0832,VALID,98,VALID,0,
2012-09-06, 03:19:04,VALID,917.269,VALID,0,VALID,97.4044,VALID,0,VALID,19.0817,VALID,108,VALID,0,
2012-09-06, 03:20:04,VALID,917.26,VALID,0,VALID,97.412,VALID,0,VALID,19.0832,VALID,108,VALID,0,
2012-09-06, 03:21:04,VALID,917.236,VALID,0,VALID,97.4196,VALID,0,VALID,19.0832,VALID,108,VALID,0,
2012-09-06, 03:22:04,VALID,917.233,VALID,0,VALID,97.4196,VALID,0,VALID,19.1027,VALID,108,VALID,0,
2012-09-06, 03:23:04,VALID,917.279,VALID,0,VALID,97.412,VALID,0,VALID,19.1027,VALID,108,VALID,0,
2012-09-06, 03:24:04,VALID,917.271,VALID,0,VALID,97.4196,VALID,0,VALID,19.0817,VALID,108,VALID,0,
2012-09-06, 03:25:04,VALID,917.287,VALID,0,VALID,97.4196,VALID,0,VALID,19.1222,VALID,120,VALID,0,
2012-09-06, 03:26:04,VALID,917.28,VALID,0,VALID,97.412,VALID,0,VALID,19.1222,VALID,120,VALID,0,
2012-09-06, 03:27:04,VALID,917.27,VALID,0,VALID,97.412,VALID,0,VALID,19.1222,VALID,120,VALID,0,
2012-09-06, 03:28:04,VALID,917.274,VALID,0,VALID,97.4273,VALID,0,VALID,19.1027,VALID,120,VALID,0,
2012-09-06, 03:29:04,VALID,917.28,VALID,0,VALID,97.4273,VALID,0,VALID,19.1012,VALID,120,VALID,0,
2012-09-06, 03:30:04,VALID,917.247,VALID,0,VALID,97.4273,VALID,0,VALID,19.1222,VALID,120,VALID,0,
2012-09-06, 03:31:04,VALID,917.26,VALID,0,VALID,97.4349,VALID,0,VALID,19.1207,VALID,120,VALID,0,
2012-09-06, 03:32:04,VALID,917.269,VALID,0,VALID,97.4196,VALID,0,VALID,19.1207,VALID,120,VALID,0,
2012-09-06, 03:33:04,VALID,917.291,VALID,0,VALID,97.412,VALID,0,VALID,19.1207,VALID,120,VALID,0,
2012-09-06, 03:34:04,VALID,917.318,VALID,0,VALID,97.412,VALID,0,VALID,19.1012,VALID,120,VALID,0,
2012-09-06, 03:35:04,VALID,917.354,VALID,0,VALID,97.4273,VALID,0,VALID,19.1012,VALID,120,VALID,0,
2012-09-06, 03:36:04,VALID,917.343,VALID,0,VALID,97.4273,VALID,0,VALID,19.1027,VALID,120,VALID,0,
2012-09-06, 03:37:04,VALID,917.379,VALID,0,VALID,97.412,VALID,0,VALID,19.0622,VALID,120,VALID,0,
2012-09-06, 03:38:04,VALID,917.365,VALID,0,VALID,97.4196,VALID,0,VALID,19.0622,VALID,120,VALID,0,
2012-09-06, 03:39:04,VALID,917.392,VALID,0,VALID,97.4196,VALID,0.107441,VALID,19.0637,VALID,120,VALID,0,
2012-09-06, 03:40:04,VALID,917.379,VALID,0,VALID,97.412,VALID,0,VALID,19.0427,VALID,120,VALID,0,
2012-09-06, 03:41:04,VALID,917.393,VALID,0,VALID,97.3891,VALID,0,VALID,19.0637,VALID,120,VALID,0,
2012-09-06, 03:42:04,VALID,917.402,VALID,0,VALID,97.4196,VALID,0,VALID,19.0442,VALID,120,VALID,0,
2012-09-06, 03:43:04,VALID,917.37,VALID,0,VALID,97.4273,VALID,0,VALID,19.0232,VALID,120,VALID,0,
2012-09-06, 03:44:04,VALID,917.383,VALID,0,VALID,97.4273,VALID,0,VALID,19.0637,VALID,120,VALID,0,
2012-09-06, 03:45:04,VALID,917.365,VALID,0,VALID,97.4273,VALID,0,VALID,19.0442,VALID,120,VALID,0,
2012-09-06, 03:46:04,VALID,917.37,VALID,0,VALID,97.4196,VALID,0,VALID,18.9842,VALID,120,VALID,0,
2012-09-06, 03:47:04,VALID,917.363,VALID,0,VALID,97.3968,VALID,0,VALID,18.9467,VALID,120,VALID,0,
2012-09-06, 03:48:04,VALID,917.364,VALID,0,VALID,97.4044,VALID,0,VALID,18.9857,VALID,120,VALID,0,
2012-09-06, 03:49:04,VALID,917.376,VALID,0,VALID,97.4044,VALID,0,VALID,18.9842,VALID,120,VALID,0,
2012-09-06, 03:50:04,VALID,917.386,VALID,0,VALID,97.4044,VALID,0,VALID,18.9662,VALID,120,VALID,0,
2012-09-06, 03:51:04,VALID,917.373,VALID,0,VALID,97.412,VALID,0,VALID,18.8672,VALID,120,VALID,0,
2012-09-06, 03:52:04,VALID,917.388,VALID,0,VALID,97.412,VALID,0,VALID,18.8672,VALID,120,VALID,0,
2012-09-06, 03:53:04,VALID,917.404,VALID,0,VALID,97.4196,VALID,0,VALID,18.8867,VALID,120,VALID,0,
2012-09-06, 03:54:04,VALID,917.389,VALID,0,VALID,97.4501,VALID,0,VALID,18.8867,VALID,120,VALID,0,
2012-09-06, 03:55:04,VALID,917.398,VALID,0,VALID,97.4349,VALID,0,VALID,18.8867,VALID,120,VALID,0,
2012-09-06, 03:56:04,VALID,917.384,VALID,0,VALID,97.4425,VALID,0,VALID,18.8672,VALID,120,VALID,0,
2012-09-06, 03:57:04,VALID,917.369,VALID,0,VALID,97.4425,VALID,0,VALID,18.8672,VALID,120,VALID,0,